AirNav   Free Bose SoundSport
 
 415 users online  

KVLL Oakland/Troy Airport
Troy, Michigan, USA

GOING TO TROY?


FAA INFORMATION EFFECTIVE 28 MARCH 2019

Location

FAA Identifier: VLL
Lat/Long: 42-32-34.6000N / 083-10-40.4000W
42-32.576667N / 083-10.673333W
42.5429444 / -83.1778889
(estimated)
Elevation: 727.2 ft. / 221.7 m (surveyed)
Variation: 06W (1995)
From city: 2 miles E of TROY, MI
Time zone: UTC -4 (UTC -5 during Standard Time)
Zip code: 48084

Airport Operations

Airport use: Open to the public
Control tower: no
ARTCC: CLEVELAND CENTER
FSS: LANSING FLIGHT SERVICE STATION
NOTAMs facility: VLL (NOTAM-D service available)
Attendance: 0800-1800
Pattern altitude: 1727.2 ft. MSL
Wind indicator: lighted
Segmented circle: no
Lights: ACTVT MIRL RY 09/27 & PAPI RYS 09 & 27 - CTAF.
Beacon: white-green (lighted land airport)
Operates sunset to sunrise.
Landing fee: yes

Airport Communications

CTAF/UNICOM: 123.05
WX AWOS-3: 119.475 (248-288-4649)
DETROIT APPROACH: 134.3
DETROIT DEPARTURE: 134.3
BARII DP: 134.3
CCOBB DP: 134.3
CLVIN DP: 134.3
HHOWE DP: 134.3
KAYLN DP: 134.3
LIDDS DP: 134.3
MIGGY DP: 134.3
PAVYL DP: 134.3
SNDRS DP: 134.3
TRMML DP: 134.3
ZETTR DP: 134.3
WX ASOS at DET (11 nm SE): PHONE 313-371-9696
WX ASOS at PTK (13 nm NW): 125.025 (248-886-8551)

Nearby radio navigation aids

VOR radial/distance  VOR name  Freq  Var
SVMr069/20.1SALEM VORTAC114.3003W
DXOr029/21.5DETROIT VOR/DME113.4006W
YQGr325/23.4WINDSOR VOR/DME113.8006W
CRLr026/32.2CARLETON VOR/DME115.7003W
FNTr141/35.7FLINT VORTAC116.9006W

 
NDB name  Hdg/Dist  Freq  Var  ID
GROSSE ILE005/26.541907WRYS .-. -.-- ...

Airport Services

Fuel available: 100LL JET-A
Parking: tiedowns
Airframe service: NONE
Powerplant service: NONE

Runway Information

Runway 9/27

Dimensions: 3549 x 60 ft. / 1082 x 18 m
Surface: asphalt, in fair condition
Runway edge lights: medium intensity
RUNWAY 9  RUNWAY 27
Latitude: 42-32.575973N42-32.578848N
Longitude: 083-11.068925W083-10.278788W
Elevation: 727.0 ft.701.0 ft.
Gradient: 0.7% DOWN0.7% UP
Traffic pattern: leftleft
Runway heading: 096 magnetic, 090 true276 magnetic, 270 true
Markings: nonprecision, in good conditionnonprecision, in good condition
Visual slope indicator: 2-light PAPI on right (3.75 degrees glide path)2-light PAPI on left (3.75 degrees glide path)
Runway end identifier lights: nono
Touchdown point: yes, no lightsyes, no lights
Obstructions: 19 ft. trees, 542 ft. from runway, 18:1 slope to clear17 ft. bldg, lighted, 540 ft. from runway, 20:1 slope to clear

Airport Ownership and Management from official FAA records

Ownership: Publicly-owned
Owner: OAKLAND COUNTY
6500 HIGHLAND ROAD
WATERFORD, MI 48327
Phone (248) 288-6100
ARPT PHONE 248-666-3900
Manager: CHERYL BUSH
6500 HIGHLAND RD
WATERFORD, MI 48327
Phone 248-666-3900

Airport Operational Statistics

Aircraft based on the field: 115
Single engine airplanes: 104
Multi engine airplanes: 7
Helicopters: 3
Ultralights: 1
    
Aircraft operations: avg 82/day *
50% transient general aviation
50% local general aviation
* for 12-month period ending 31 December 2014

Additional Remarks

DEER AND BIRDS ON & INVOF ARPT.
RY 09 +3 FT BERM 316 FT FM THLD.
NO TGL OR PRACTICE TFC PATTERNS.
FOR CD CTC DETROIT APCH AT 800-499-8181.

Instrument Procedures

NOTE: All procedures below are presented as PDF files. If you need a reader for these files, you should download the free Adobe Reader.

NOT FOR NAVIGATION. Please procure official charts for flight.
FAA instrument procedures published for use from 28 March 2019 at 0901Z to 25 April 2019 at 0900Z.

 
STARs - Standard Terminal Arrivals
FOREY ONE (RNAV)   download (152KB)
OKLND ONE (RNAV)   download (130KB)
PETTE ONE (RNAV)   download (155KB)
RRALF ONE (RNAV)   download (143KB)
 
IAPs - Instrument Approach Procedures
RNAV (GPS) RWY 09   download (161KB)
 
Departure Procedures
BARII ONE (RNAV)   download (138KB)
CCOBB ONE (RNAV)   download (165KB)
CLVIN ONE (RNAV)   download (151KB)
HHOWE ONE (RNAV)   download (157KB)
KAYLN ONE (RNAV)   download (157KB)
LIDDS ONE (RNAV)   download (159KB)
MIGGY ONE (RNAV)   download (170KB)
PAVYL ONE (RNAV)   download (160KB)
SNDRS ONE (RNAV)   download (172KB)
TRMML ONE (RNAV)   download (140KB)
ZETTR ONE (RNAV)   download (177KB)
NOTE: Special Take-Off Minimums/Departure Procedures apply   download (125KB)

Other nearby airports with instrument procedures:

KDET - Coleman A Young Municipal Airport (11 nm SE)
KPTK - Oakland County International Airport (13 nm NW)
KMTC - Selfridge Air National Guard Base (16 nm E)
1D2 - Canton-Plymouth-Mettetal Airport (17 nm SW)
57D - Ray Community Airport (17 nm NE)
D98 - Romeo State Airport (18 nm NE)
Y47 - Oakland Southwest Airport (20 nm W)
 
Loc | Ops | Rwys | IFR | FBO | Links
Com | Nav | Svcs | Stats | Notes
Area around KVLL (Oakland/Troy Airport)
 
Road maps at: MapQuest Bing Google
 
Aerial photo
WARNING: Photo may not be current or correct
Aerial photo of KVLL (Oakland/Troy Airport)
Photo by Jeff Schuster
Photo taken 29-Jun-2014
looking west.

Do you have a better or more recent aerial photo of Oakland/Troy Airport that you would like to share? If so, please send us your photo.

 
Sectional chart

 
Airport distance calculator
Flying to Oakland/Troy Airport? Find the distance to fly.

From to KVLL

Sunrise and sunset
Times for 20-Apr-2019
 Local
(UTC-4)
 Zulu
(UTC)
Morning civil twilight06:1510:15
Sunrise06:4510:45
Sunset20:1900:19
Evening civil twilight20:4800:48

Current date and time
Zulu (UTC)  20-Apr-2019 10:52:13
Local (UTC-4)  20-Apr-2019 06:52:13
 
METAR
KVLL 201036Z AUTO 02009G17KT 340V040 10SM OVC011 04/02 A2968 RMK AO2 T00370015
KDET 
11nm SE 
200953Z 01014G22KT 10SM OVC010 04/02 A2965 RMK AO2 PRESFR SLP042 T00390017
KPTK 
13nm NW 
200953Z 01017G23KT 10SM -RA OVC008 03/02 A2967 RMK AO2 RAE0858B17 SLP054 P0000 T00280022 $
KMTC 
17nm E 
200956Z AUTO 01018G23KT 10SM OVC010 04/04 A2964 RMK AO2 SLP046 T00380038 $
CYQG 
19nm SE 
201000Z AUTO 02018G25KT 9SM OVC011 04/03 A2963 RMK SLP039
KDTW 
20nm S 
200953Z 01017G26KT 10SM OVC013 04/01 A2962 RMK AO2 PK WND 02027/0936 PRESFR SLP034 T00440011
TAF
KDET 
11nm SE 
200535Z 2006/2106 01016G25KT 6SM -SHRA OVC009 FM201100 01015G25KT 6SM -RA BKN016 OVC025 FM201400 36012G22KT 3SM RA BR SCT008 OVC014 FM201800 34008KT 6SM BR SCT012 BKN020 OVC040
KPTK 
13nm NW 
200535Z 2006/2106 01014G28KT P6SM -DZ OVC010 FM201100 02015G25KT P6SM OVC012 FM201500 01012G19KT 3SM RA BR BKN008 OVC016 FM202000 34008KT 6SM BR OVC012
KMTC 
17nm E 
200900Z 2009/2115 02012G18KT 8000 -RA OVC010 QNH2962INS BECMG 2015/2016 01012KT 9000 -SHRA OVC005 QNH2964INS BECMG 2020/2021 36009KT 8000 BR OVC005 510308 QNH2969INS BECMG 2110/2111 VRB06KT 9999 NSW OVC010 QNH2981INS TX06/2023Z TN03/2009Z LAST NO AMDS AFT 2109 NEXT 2111
CYQG 
19nm SE 
200918Z 2009/2106 02018G28KT P6SM OVC012 TEMPO 2009/2013 5SM -RA -DZ BR OVC008 FM201300 02012G22KT 6SM -RA BR OVC010 TEMPO 2013/2018 3SM SHRA BR OVC006 FM201800 01010G20KT 3SM -RA BR OVC006 FM202000 01012KT 2SM -DZ BR OVC005 BECMG 2104/2106 32006KT RMK FCST BASED ON AUTO OBS. NXT FCST BY 201200Z
KDTW 
20nm S 
200907Z 2009/2112 01016G25KT 6SM -SHRA OVC012 FM201400 02017KT 5SM -SHRA BR OVC010 FM201600 02017KT 2SM SHRA BR OVC010 FM202000 01007KT 4SM -SHRA BR OVC010 FM210100 34005KT P6SM OVC007 FM210500 VRB03KT 4SM BR OVC007
NOTAMs
Click for the latest NOTAMs
NOTAMs are issued by the DoD/FAA and will open in a separate window not controlled by AirNav.

 

 
 

FBO, Fuel Providers, and Aircraft Ground Support

  
 Business Name 
 
 Contact 
 
 Services / Description 
 
Fuel Prices
 
Comments
  
JDS Pump-N-Go 248-288-6100
[email]
Aviation fuel, Aircraft parking (ramp or tiedown), Hangar leasing / sales

More info about JDS Pump-N-Go
Avfuel
100LL Jet A
SS $5.46 $4.58 
 Updated 17-Apr-2019
 
   write
SS=Self service
Update Fuel Prices
 

Would you like to see your business listed on this page?

 If your business provides an interesting product or service to pilots, flight crews, aircraft, or users of the Oakland/Troy Airport, you should consider listing it here.  To start the listing process, click on the button below
 
Add a business
 

Other Pages about Oakland/Troy Airport

Oakland/Troy Airport Website
Page from the Michigan Airport Directory (PDF)
 
Update a link
 
Copyright © AirNav, LLC. All rights reserved. Privacy Policy  Contact